Location: ???????
(55.4362°N, 38.1183°E)
Time: 20:31:33
(UTC+00:00)

N. Korean satellite - Pass Details

Date: 02 October 2021
Orbit: 450 x 495 km, 97.3° (Epoch: 15 October)

Event Time Altitude Azimuth Distance (km) Brightness Sun altitude
Rises 01:45:43 0° 27° (NNE) 2,548 10.9 -15.7°
Reaches altitude 10° 01:48:26 10° 50° (NE) 1,672 10.4 -15.4°
Maximum altitude 01:50:43 16° 89° (E) 1,346 9.9 -15.1°
Drops below altitude 10° 01:53:01 10° 129° (SE) 1,678 9.8 -14.7°
Sets 01:55:44 0° 152° (SSE) 2,561 10.4 -14.4°
